JES3107 SACO-SABE

Flight info

Callsign JES3107
Flight time 0h 56m
Altitude 35000
Route UTRAX1C UTRAX UW24 SNT SNT9R
Aircraft A21N/M-SDE2E3FGHIRWXY/LB1

Departure

Time 2026-05-08 00:59
Airport Ingeniero Aeronáutico Ambrosio L.V. Taravella International Airport (SACO)

Arrival

Time 2026-05-08 01:56
Airport Aeroparque Jorge Newbery (SABE)
Time Latitude Longitude Altitude Speed Heading
2026-05-08 00:45 -31.31653 -64.21163 1613 ft 0 kts 270°
2026-05-08 00:53 -31.31653 -64.21149 1613 ft 2 kts 270°
2026-05-08 00:53 -31.31653 -64.21131 1613 ft 2 kts 271°
2026-05-08 00:53 -31.31654 -64.21114 1613 ft 2 kts 271°
2026-05-08 00:53 -31.31654 -64.21104 1613 ft 1 kts 270°
2026-05-08 00:54 -31.31651 -64.21097 1613 ft 0 kts 203°
2026-05-08 00:54 -31.31646 -64.21096 1613 ft 1 kts 174°
2026-05-08 00:54 -31.31642 -64.21096 1613 ft 0 kts 179°
2026-05-08 00:55 -31.31643 -64.21096 1613 ft 1 kts 179°
2026-05-08 00:55 -31.31662 -64.21095 1613 ft 4 kts 178°
2026-05-08 00:55 -31.31711 -64.21091 1613 ft 10 kts 166°
2026-05-08 00:56 -31.31793 -64.21042 1613 ft 15 kts 158°
2026-05-08 00:56 -31.31917 -64.21027 1613 ft 20 kts 179°
2026-05-08 00:56 -31.32069 -64.21023 1613 ft 22 kts 179°
2026-05-08 00:56 -31.32232 -64.21018 1613 ft 25 kts 178°
2026-05-08 00:57 -31.32387 -64.21007 1613 ft 20 kts 156°
2026-05-08 00:57 -31.32423 -64.20879 1613 ft 14 kts 43°
2026-05-08 00:57 -31.32350 -64.20816 1613 ft 0 kts
2026-05-08 00:57 -31.32347 -64.20816 1613 ft 0 kts 360°
2026-05-08 00:58 -31.32345 -64.20816 1613 ft 1 kts 359°
2026-05-08 00:58 -31.32109 -64.20819 1613 ft 73 kts 359°
2026-05-08 00:59 -31.31358 -64.20837 1613 ft 142 kts 359°
2026-05-08 00:59 -31.30211 -64.20848 1793 ft 180 kts 359°
2026-05-08 00:59 -31.28972 -64.20829 2589 ft 183 kts
2026-05-08 00:59 -31.27800 -64.20369 3503 ft 181 kts 34°
2026-05-08 01:00 -31.27048 -64.19245 4163 ft 182 kts 59°
2026-05-08 01:00 -31.26486 -64.17824 4561 ft 198 kts 63°
2026-05-08 01:00 -31.25941 -64.16316 5120 ft 206 kts 64°
2026-05-08 01:00 -31.25360 -64.14726 5534 ft 222 kts 63°
2026-05-08 01:01 -31.24713 -64.12995 5969 ft 240 kts 64°
2026-05-08 01:01 -31.24361 -64.11059 6546 ft 254 kts 94°
2026-05-08 01:01 -31.24972 -64.09110 7291 ft 259 kts 120°
2026-05-08 01:01 -31.25986 -64.07362 8026 ft 262 kts 124°
2026-05-08 01:02 -31.27048 -64.05611 8707 ft 267 kts 127°
2026-05-08 01:02 -31.28316 -64.04000 9154 ft 282 kts 137°
2026-05-08 01:02 -31.29817 -64.02415 9550 ft 299 kts 139°
2026-05-08 01:02 -31.31388 -64.00785 10167 ft 306 kts 138°
2026-05-08 01:03 -31.33020 -63.99056 10693 ft 318 kts 137°
2026-05-08 01:03 -31.34674 -63.97264 11016 ft 336 kts 137°
2026-05-08 01:03 -31.36429 -63.95336 11332 ft 354 kts 137°
2026-05-08 01:03 -31.38257 -63.93311 11635 ft 371 kts 137°
2026-05-08 01:04 -31.40156 -63.91196 11946 ft 387 kts 136°
2026-05-08 01:04 -31.42141 -63.88980 12507 ft 395 kts 136°
2026-05-08 01:04 -31.44127 -63.86758 13201 ft 399 kts 136°
2026-05-08 01:04 -31.46119 -63.84526 13865 ft 403 kts 137°
2026-05-08 01:05 -31.48153 -63.82244 14521 ft 408 kts 137°
2026-05-08 01:05 -31.50210 -63.79935 15178 ft 413 kts 137°
2026-05-08 01:05 -31.52289 -63.77599 15833 ft 418 kts 137°
2026-05-08 01:05 -31.54365 -63.75265 16583 ft 419 kts 137°
2026-05-08 01:06 -31.56475 -63.72891 17307 ft 422 kts 137°
2026-05-08 01:06 -31.58600 -63.70499 17937 ft 427 kts 137°
2026-05-08 01:06 -31.60728 -63.68102 18542 ft 432 kts 137°
2026-05-08 01:06 -31.62903 -63.65649 19147 ft 436 kts 137°
2026-05-08 01:07 -31.65101 -63.63170 19738 ft 441 kts 137°
2026-05-08 01:07 -31.67296 -63.60692 20309 ft 445 kts 137°
2026-05-08 01:07 -31.69540 -63.58156 20872 ft 449 kts 137°
2026-05-08 01:07 -31.71790 -63.55612 21416 ft 453 kts 138°
2026-05-08 01:08 -31.74072 -63.53030 21948 ft 458 kts 138°
2026-05-08 01:08 -31.76375 -63.50420 22467 ft 462 kts 138°
2026-05-08 01:08 -31.78653 -63.47836 22966 ft 466 kts 138°
2026-05-08 01:08 -31.81007 -63.45164 23463 ft 469 kts 138°
2026-05-08 01:09 -31.83364 -63.42486 23942 ft 473 kts 138°
2026-05-08 01:09 -31.85725 -63.39804 24409 ft 477 kts 138°
2026-05-08 01:09 -31.88055 -63.37041 24863 ft 481 kts 135°
2026-05-08 01:09 -31.90273 -63.34104 25306 ft 486 kts 131°
2026-05-08 01:10 -31.92425 -63.30970 25728 ft 490 kts 130°
2026-05-08 01:10 -31.94531 -63.27817 26138 ft 493 kts 129°
2026-05-08 01:10 -31.96673 -63.24599 26541 ft 496 kts 129°
2026-05-08 01:10 -31.98810 -63.21393 26964 ft 498 kts 130°
2026-05-08 01:11 -32.00946 -63.18195 27502 ft 497 kts 130°
2026-05-08 01:11 -32.03085 -63.15000 28037 ft 496 kts 130°
2026-05-08 01:11 -32.05215 -63.11821 28516 ft 496 kts 130°
2026-05-08 01:11 -32.07324 -63.08675 28941 ft 496 kts 130°
2026-05-08 01:12 -32.09463 -63.05485 29307 ft 497 kts 130°
2026-05-08 01:12 -32.11621 -63.02272 29631 ft 500 kts 130°
2026-05-08 01:12 -32.13786 -62.99060 29938 ft 502 kts 130°
2026-05-08 01:12 -32.15944 -62.95854 30237 ft 504 kts 130°
2026-05-08 01:13 -32.18132 -62.92593 30528 ft 506 kts 130°
2026-05-08 01:13 -32.20320 -62.89324 30801 ft 508 kts 130°
2026-05-08 01:13 -32.22506 -62.86047 31064 ft 511 kts 130°
2026-05-08 01:13 -32.24677 -62.82786 31365 ft 512 kts 130°
2026-05-08 01:14 -32.26877 -62.79477 31719 ft 511 kts 130°
2026-05-08 01:14 -32.29063 -62.76186 32082 ft 510 kts 130°
2026-05-08 01:14 -32.31253 -62.72886 32436 ft 510 kts 131°
2026-05-08 01:14 -32.33434 -62.69600 32774 ft 509 kts 131°
2026-05-08 01:15 -32.35622 -62.66300 33102 ft 509 kts 131°
2026-05-08 01:15 -32.37781 -62.63040 33400 ft 508 kts 131°
2026-05-08 01:15 -32.39951 -62.59763 33653 ft 509 kts 131°
2026-05-08 01:15 -32.42147 -62.56444 33887 ft 511 kts 131°
2026-05-08 01:16 -32.44328 -62.53144 34118 ft 512 kts 131°
2026-05-08 01:16 -32.46534 -62.49805 34353 ft 513 kts 131°
2026-05-08 01:16 -32.48747 -62.46453 34584 ft 514 kts 131°
2026-05-08 01:16 -32.50959 -62.43097 34795 ft 516 kts 131°
2026-05-08 01:17 -32.53173 -62.39733 34832 ft 517 kts 131°
2026-05-08 01:17 -32.57588 -62.33012 34831 ft 517 kts 131°
2026-05-08 01:18 -32.61992 -62.26263 34826 ft 508 kts 131°
2026-05-08 01:18 -32.66289 -62.19689 34831 ft 505 kts 131°
2026-05-08 01:19 -32.70507 -62.12976 34826 ft 507 kts 128°
2026-05-08 01:19 -32.74511 -62.06128 34831 ft 507 kts 127°
2026-05-08 01:20 -32.78535 -61.99204 34831 ft 507 kts 127°
2026-05-08 01:20 -32.82512 -61.92368 34831 ft 507 kts 127°
2026-05-08 01:21 -32.86518 -61.85480 34831 ft 507 kts 127°
2026-05-08 01:21 -32.90515 -61.78597 34831 ft 507 kts 127°
2026-05-08 01:22 -32.94520 -61.71688 34833 ft 510 kts 127°
2026-05-08 01:22 -32.98586 -61.64670 34836 ft 523 kts 127°
2026-05-08 01:23 -33.02763 -61.57443 34834 ft 529 kts 127°
2026-05-08 01:23 -33.06901 -61.50258 34833 ft 522 kts 127°
2026-05-08 01:24 -33.10967 -61.43190 34832 ft 514 kts 127°
2026-05-08 01:24 -33.14997 -61.36219 34832 ft 510 kts 127°
2026-05-08 01:25 -33.18974 -61.29275 34831 ft 510 kts 126°
2026-05-08 01:25 -33.22983 -61.22236 34831 ft 510 kts 126°
2026-05-08 01:26 -33.26968 -61.15241 34830 ft 512 kts 126°
2026-05-08 01:26 -33.31007 -61.08138 34830 ft 517 kts 126°
2026-05-08 01:27 -33.35030 -61.01018 34830 ft 522 kts 126°
2026-05-08 01:27 -33.39118 -60.93774 34831 ft 527 kts 126°
2026-05-08 01:28 -33.43213 -60.86496 34831 ft 527 kts 126°
2026-05-08 01:28 -33.47305 -60.79203 34831 ft 528 kts 126°
2026-05-08 01:29 -33.51371 -60.71934 34831 ft 528 kts 126°
2026-05-08 01:29 -33.55446 -60.64633 34831 ft 528 kts 126°
2026-05-08 01:30 -33.59551 -60.57265 34831 ft 528 kts 126°
2026-05-08 01:30 -33.63605 -60.49972 34831 ft 528 kts 126°
2026-05-08 01:31 -33.67675 -60.42637 34831 ft 528 kts 126°
2026-05-08 01:31 -33.71722 -60.35326 34609 ft 530 kts 126°
2026-05-08 01:31 -33.73828 -60.31508 33996 ft 529 kts 125°
2026-05-08 01:32 -33.75834 -60.27860 33293 ft 528 kts 125°
2026-05-08 01:32 -33.77888 -60.24128 32398 ft 531 kts 124°
2026-05-08 01:32 -33.79900 -60.20475 31640 ft 530 kts 124°
2026-05-08 01:32 -33.81942 -60.16763 30947 ft 530 kts 124°
2026-05-08 01:33 -33.83983 -60.13051 30265 ft 530 kts 124°
2026-05-08 01:33 -33.86037 -60.09355 29581 ft 530 kts 124°
2026-05-08 01:33 -33.88112 -60.05652 28885 ft 530 kts 124°
2026-05-08 01:33 -33.90208 -60.01917 28171 ft 529 kts 124°
2026-05-08 01:34 -33.92086 -59.98566 27659 ft 528 kts 124°
2026-05-08 01:34 -33.94127 -59.94913 27197 ft 528 kts 124°
2026-05-08 01:34 -33.96212 -59.91175 26729 ft 528 kts 123°
2026-05-08 01:34 -33.98262 -59.87497 26253 ft 527 kts 123°
2026-05-08 01:35 -34.00295 -59.83841 25755 ft 527 kts 123°
2026-05-08 01:35 -34.02326 -59.80186 25229 ft 526 kts 123°
2026-05-08 01:35 -34.04369 -59.76505 24522 ft 526 kts 123°
2026-05-08 01:35 -34.06400 -59.72843 23970 ft 525 kts 123°
2026-05-08 01:36 -34.08411 -59.69212 23431 ft 524 kts 123°
2026-05-08 01:36 -34.10333 -59.65739 22977 ft 520 kts 123°
2026-05-08 01:36 -34.12363 -59.62089 22445 ft 515 kts 123°
2026-05-08 01:36 -34.14334 -59.58548 21935 ft 511 kts 123°
2026-05-08 01:37 -34.16294 -59.55011 21452 ft 505 kts 123°
2026-05-08 01:37 -34.18219 -59.51520 20912 ft 499 kts 123°
2026-05-08 01:37 -34.20141 -59.48026 20430 ft 488 kts 123°
2026-05-08 01:37 -34.22031 -59.44588 19837 ft 483 kts 123°
2026-05-08 01:38 -34.23853 -59.41216 19251 ft 478 kts 122°
2026-05-08 01:38 -34.25621 -59.37878 18716 ft 472 kts 121°
2026-05-08 01:38 -34.27386 -59.34523 18216 ft 468 kts 121°
2026-05-08 01:38 -34.29115 -59.31217 17715 ft 463 kts 121°
2026-05-08 01:39 -34.30822 -59.27950 17201 ft 458 kts 121°
2026-05-08 01:39 -34.32500 -59.24739 16703 ft 454 kts 121°
2026-05-08 01:39 -34.34196 -59.21498 16199 ft 449 kts 121°
2026-05-08 01:39 -34.35838 -59.18361 15697 ft 445 kts 121°
2026-05-08 01:40 -34.37492 -59.15200 15200 ft 441 kts 121°
2026-05-08 01:40 -34.39120 -59.12088 14703 ft 436 kts 121°
2026-05-08 01:40 -34.40732 -59.09005 14199 ft 432 kts 121°
2026-05-08 01:40 -34.42325 -59.05955 13712 ft 428 kts 121°
2026-05-08 01:41 -34.43899 -59.02938 13222 ft 424 kts 121°
2026-05-08 01:41 -34.45411 -59.00034 12745 ft 421 kts 122°
2026-05-08 01:41 -34.46710 -58.97539 12348 ft 418 kts 122°
2026-05-08 01:41 -34.48249 -58.94579 11887 ft 414 kts 122°
2026-05-08 01:42 -34.49789 -58.91619 11426 ft 412 kts 122°
2026-05-08 01:42 -34.51292 -58.88726 11000 ft 408 kts 122°
2026-05-08 01:42 -34.52829 -58.85767 10381 ft 401 kts 122°
2026-05-08 01:42 -34.54263 -58.83002 10042 ft 370 kts 123°
2026-05-08 01:43 -34.55573 -58.80434 9895 ft 337 kts 120°
2026-05-08 01:43 -34.56560 -58.78018 9783 ft 310 kts 113°
2026-05-08 01:43 -34.57285 -58.75645 9695 ft 284 kts 109°
2026-05-08 01:43 -34.57890 -58.73442 9396 ft 271 kts 109°
2026-05-08 01:44 -34.58478 -58.71262 9076 ft 268 kts 109°
2026-05-08 01:44 -34.59071 -58.69084 8760 ft 269 kts 109°
2026-05-08 01:44 -34.59658 -58.66940 8533 ft 264 kts 109°
2026-05-08 01:44 -34.60230 -58.64861 8294 ft 260 kts 109°
2026-05-08 01:45 -34.60812 -58.62748 8061 ft 256 kts 109°
2026-05-08 01:45 -34.61367 -58.60727 7828 ft 252 kts 109°
2026-05-08 01:45 -34.61846 -58.58948 7610 ft 248 kts 109°
2026-05-08 01:45 -34.62369 -58.56987 7201 ft 243 kts 109°
2026-05-08 01:46 -34.62886 -58.55044 6902 ft 234 kts 109°
2026-05-08 01:46 -34.63372 -58.53216 6667 ft 223 kts 109°
2026-05-08 01:46 -34.63812 -58.51560 6416 ft 219 kts 109°
2026-05-08 01:46 -34.64284 -58.49790 6179 ft 217 kts 109°
2026-05-08 01:47 -34.64729 -58.48114 5934 ft 215 kts 109°
2026-05-08 01:47 -34.65185 -58.46396 5679 ft 215 kts 109°
2026-05-08 01:47 -34.65647 -58.44663 5458 ft 215 kts 109°
2026-05-08 01:48 -34.66515 -58.41399 5018 ft 213 kts 109°
2026-05-08 01:48 -34.66962 -58.39716 4850 ft 207 kts 110°
2026-05-08 01:48 -34.67395 -58.38074 4716 ft 197 kts 110°
2026-05-08 01:48 -34.67802 -58.36556 4371 ft 199 kts 110°
2026-05-08 01:49 -34.68210 -58.35011 4012 ft 200 kts 110°
2026-05-08 01:49 -34.68613 -58.33491 3695 ft 200 kts 107°
2026-05-08 01:49 -34.69032 -58.31873 3381 ft 198 kts 110°
2026-05-08 01:49 -34.69461 -58.30258 3072 ft 196 kts 107°
2026-05-08 01:50 -34.69844 -58.28778 2995 ft 195 kts 108°
2026-05-08 01:50 -34.70154 -58.27151 2991 ft 199 kts 90°
2026-05-08 01:50 -34.69828 -58.25517 2994 ft 198 kts 60°
2026-05-08 01:50 -34.68902 -58.24287 2958 ft 197 kts 31°
2026-05-08 01:51 -34.67708 -58.23758 2820 ft 192 kts
2026-05-08 01:51 -34.66375 -58.23808 2579 ft 185 kts 339°
2026-05-08 01:51 -34.65423 -58.24478 2493 ft 180 kts 313°
2026-05-08 01:51 -34.64671 -58.25680 2499 ft 179 kts 301°
2026-05-08 01:52 -34.63988 -58.26966 2488 ft 181 kts 300°
2026-05-08 01:52 -34.63295 -58.28270 2474 ft 183 kts 299°
2026-05-08 01:52 -34.62606 -58.29563 2244 ft 182 kts 298°
2026-05-08 01:52 -34.61933 -58.30782 1999 ft 174 kts 298°
2026-05-08 01:53 -34.61265 -58.31978 1758 ft 164 kts 303°
2026-05-08 01:53 -34.60645 -58.33083 1574 ft 151 kts 303°
2026-05-08 01:53 -34.60119 -58.34019 1359 ft 138 kts 298°
2026-05-08 01:53 -34.59600 -58.34956 1207 ft 140 kts 298°
2026-05-08 01:54 -34.59068 -58.35962 1017 ft 139 kts 301°
2026-05-08 01:54 -34.58488 -58.36962 857 ft 145 kts 299°
2026-05-08 01:54 -34.57927 -58.38000 660 ft 143 kts 301°
2026-05-08 01:54 -34.57405 -58.38921 412 ft 143 kts 300°
2026-05-08 01:55 -34.56852 -58.39912 156 ft 142 kts 302°
2026-05-08 01:55 -34.56299 -58.40895 33 ft 137 kts 299°
2026-05-08 01:55 -34.55865 -58.41694 27 ft 103 kts 301°
2026-05-08 01:55 -34.55555 -58.42241 27 ft 53 kts 298°
2026-05-08 01:56 -34.55427 -58.42479 27 ft 15 kts 310°
2026-05-08 01:56 -34.55398 -58.42503 27 ft 0 kts 341°
2026-05-08 01:56 -34.55390 -58.42503 27 ft 2 kts
2026-05-08 01:56 -34.55365 -58.42482 27 ft 6 kts 55°
2026-05-08 01:57 -34.55357 -58.42422 27 ft 11 kts 91°
2026-05-08 01:57 -34.55391 -58.42327 27 ft 13 kts 127°
2026-05-08 01:57 -34.55453 -58.42230 27 ft 15 kts 127°
2026-05-08 01:57 -34.55522 -58.42121 27 ft 17 kts 127°
2026-05-08 01:58 -34.55597 -58.41997 27 ft 18 kts 123°
2026-05-08 01:58 -34.55674 -58.41861 27 ft 20 kts 125°
2026-05-08 01:58 -34.55741 -58.41727 27 ft 16 kts 118°
2026-05-08 01:58 -34.55760 -58.41683 27 ft 0 kts 115°
2026-05-08 01:59 -34.55769 -58.41662 27 ft 5 kts 116°
2026-05-08 01:59 -34.55774 -58.41649 27 ft 1 kts 114°
2026-05-08 01:59 -34.55751 -58.41583 27 ft 12 kts 41°
2026-05-08 01:59 -34.55698 -58.41539 27 ft 5 kts 10°
2026-05-08 02:00 -34.55666 -58.41534 27 ft 0 kts